Zurück zum Katalog

LUCH

AktivKommunikationGEO
NORAD 23426·PAYLOAD·🇷🇺 Russia

Gestartet Dec 16, 1994 von Baikonur Cosmodrome

Loading…

TLE

AktuellSource: Space-Track

Epoche: Sep 14, 2026, 09:07 UTC

1 23426U 94082A   26257.37993661  .00000064  00000-0  00000-0 0  9996
2 23426  14.7377 353.8947 0006878 212.9370 147.0392  1.00174553116156

Verfolge LUCH in Echtzeit mit AllMySat

Download on the App Store